Volver al catálogo

STARLINK-34363

ActivoComunicacionesVLEO
NORAD 64497·PAYLOAD·🇺🇸 United States

Lanzado Jun 23, 2025 desde Cape Canaveral Space Force Station

Loading…

Próximos Pases (próximas 24 horas)

TLE

ActualizadoSource: CelesTrak SupGP

Época: Sep 15, 2026, 02:32 UTC

1 64497C 25133AB  26258.10604167  .00046856  00000+0  13844-2 0  2580
2 64497  53.1580 311.1138 0001209  93.4936 187.4799 15.34366917    19

Sigue STARLINK-34363 en tiempo real con AllMySat

Download on the App Store